Hihifo Airport


Codes: NLWW/WLS
Name: Hihifo Airport
City: Wallis Island
Country: Wallis and Futuna
Elevation: 79 ft.
Wikipedia:

Photos at Hihifo Airport


   Photos courtesy of SpottingLog. You can add your own sightings and photos by signing up for a free trial today.



No photos found.

Weather at Hihifo Airport


Time (UTC)DescriptionTempratureWindCloud coverageVisibilityPressureHumidity
26-Jun-2024 00:00Light Rain27°C18 mph, E75%10000m1015hPa73%
26-Jun-2024 03:00Light Rain28°C18 mph, E37%10000m1012hPa70%
26-Jun-2024 06:00Clear Sky28°C18 mph, E8%10000m1013hPa72%
26-Jun-2024 09:00Clear Sky28°C20 mph, E4%10000m1014hPa70%
26-Jun-2024 12:00Clear Sky28°C18 mph, E8%10000m1013hPa73%
26-Jun-2024 15:00Few Clouds27°C20 mph, SE19%10000m1012hPa77%
26-Jun-2024 18:00Scattered Clouds27°C20 mph, SE45%10000m1013hPa77%
26-Jun-2024 21:00Light Rain27°C20 mph, SE100%10000m1015hPa76%
27-Jun-2024 00:00Light Rain28°C18 mph, SE97%10000m1013hPa72%
27-Jun-2024 03:00Clear Sky28°C18 mph, SE0%10000m1011hPa71%
27-Jun-2024 06:00Clear Sky28°C20 mph, SE1%10000m1012hPa73%
27-Jun-2024 09:00Clear Sky28°C20 mph, E4%10000m1014hPa76%
27-Jun-2024 12:00Few Clouds28°C20 mph, E19%10000m1013hPa76%
27-Jun-2024 15:00Overcast Clouds28°C20 mph, E100%10000m1012hPa79%
27-Jun-2024 18:00Light Rain28°C20 mph, E100%10000m1013hPa81%
27-Jun-2024 21:00Light Rain28°C20 mph, E42%10000m1014hPa80%
28-Jun-2024 00:00Light Rain28°C20 mph, E25%10000m1013hPa80%
28-Jun-2024 03:00Light Rain28°C18 mph, E7%10000m1011hPa81%
28-Jun-2024 06:00Light Rain28°C18 mph, E14%10000m1012hPa81%
28-Jun-2024 09:00Light Rain28°C20 mph, E20%10000m1014hPa82%
28-Jun-2024 12:00Light Rain28°C20 mph, E19%10000m1012hPa82%
28-Jun-2024 15:00Light Rain28°C20 mph, E24%10000m1012hPa81%
28-Jun-2024 18:00Light Rain27°C20 mph, SE28%10000m1013hPa81%
28-Jun-2024 21:00Broken Clouds28°C20 mph, E61%10000m1014hPa80%
29-Jun-2024 00:00Broken Clouds28°C18 mph, E80%10000m1012hPa80%
29-Jun-2024 03:00Light Rain28°C18 mph, E73%10000m1010hPa79%
29-Jun-2024 06:00Broken Clouds28°C18 mph, E63%10000m1011hPa81%
29-Jun-2024 09:00Overcast Clouds28°C18 mph, E99%10000m1013hPa79%
29-Jun-2024 12:00Overcast Clouds28°C18 mph, E99%10000m1012hPa77%
29-Jun-2024 15:00Overcast Clouds28°C16 mph, E92%10000m1010hPa79%
29-Jun-2024 18:00Light Rain28°C16 mph, E96%10000m1011hPa80%
29-Jun-2024 21:00Moderate Rain27°C16 mph, SE100%6865m1013hPa82%
30-Jun-2024 00:00Moderate Rain27°C13 mph, E100%10000m1012hPa78%
30-Jun-2024 03:00Light Rain28°C16 mph, E100%10000m1009hPa77%
30-Jun-2024 06:00Light Rain28°C16 mph, SE100%10000m1011hPa77%
30-Jun-2024 09:00Overcast Clouds28°C20 mph, SE100%10000m1012hPa79%
30-Jun-2024 12:00Light Rain27°C20 mph, SE100%10000m1012hPa80%
30-Jun-2024 15:00Light Rain28°C22 mph, SE46%10000m1011hPa79%
30-Jun-2024 18:00Light Rain28°C22 mph, SE36%10000m1012hPa77%
30-Jun-2024 21:00Light Rain28°C22 mph, E10%10000m1013hPa78%